This is the latest recevied weather packets stored in our database for station/object N7CEE-2. If no packets are shown the sender has not sent any weather packets the latest 10 day(s).
| Time | Temp. | Humidity | Pressure | Rain* | Wind** | Luminosity | Snow |
|---|---|---|---|---|---|---|---|
| 1777843987 | 33.89° C | 20% | 1010.9 hPa | 0 mm | - | 835 W/m² | - |
| 1777843683 | 33.33° C | 20% | 1010.9 hPa | 0 mm | - | 845 W/m² | - |
| 1777843381 | 32.78° C | 21% | 1011.2 hPa | 0 mm | - | 861 W/m² | - |
| 1777843074 | 33.33° C | 21% | 1011.2 hPa | 0 mm | - | 864 W/m² | - |
| 1777842770 | 33.33° C | 20% | 1011.4 hPa | 0 mm | - | 873 W/m² | - |
| 1777842465 | 33.33° C | 21% | 1011.3 hPa | 0 mm | - | 882 W/m² | - |
| 1777842163 | 33.33° C | 21% | 1011.4 hPa | 0 mm | - | 892 W/m² | - |
| 1777841863 | 33.33° C | 21% | 1011.6 hPa | 0 mm | - | 902 W/m² | - |
| 1777841560 | 33.33° C | 22% | 1011.7 hPa | 0 mm | - | 910 W/m² | - |
| 1777841256 | 33.33° C | 22% | 1011.9 hPa | 0 mm | - | 925 W/m² | - |
| 1777840954 | 33.33° C | 22% | 1011.9 hPa | 0 mm | - | 935 W/m² | - |
| 1777840651 | 33.33° C | 23% | 1011.9 hPa | 0 mm | - | 937 W/m² | - |
| 1777840348 | 32.78° C | 24% | 1011.7 hPa | 0 mm | - | 939 W/m² | - |
| 1777840045 | 33.33° C | 24% | 1012.1 hPa | 0 mm | - | 945 W/m² | - |
| 1777839743 | 33.89° C | 24% | 1011.9 hPa | 0 mm | - | 956 W/m² | - |
| 1777839441 | 32.78° C | 25% | 1012 hPa | 0 mm | - | 960 W/m² | - |
| 1777839138 | 32.78° C | 24% | 1012.2 hPa | 0 mm | - | 964 W/m² | - |
| 1777838834 | 32.22° C | 25% | 1012.3 hPa | 0 mm | - | 967 W/m² | - |
| 1777838531 | 32.78° C | 24% | 1012.3 hPa | 0 mm | - | 968 W/m² | - |
| 1777838228 | 31.67° C | 26% | 1012.5 hPa | 0 mm | - | 974 W/m² | - |
| 1777837925 | 32.22° C | 25% | 1012.7 hPa | 0 mm | - | 978 W/m² | - |
| 1777837622 | 32.78° C | 25% | 1012.7 hPa | 0 mm | - | 980 W/m² | - |
| 1777837317 | 31.67° C | 25% | 1012.7 hPa | 0 mm | - | 982 W/m² | - |
| 1777837014 | 32.22° C | 25% | 1012.8 hPa | 0 mm | - | 983 W/m² | - |
| 1777836710 | 31.67° C | 24% | 1013 hPa | 0 mm | - | 984 W/m² | - |
* Rain latest hour (hover to see other rain measurements)
** Current wind speed in m/s (hover to see current wind gust speed)